GPS BIIF-9 (PRN 26)

Last updated on July 3, 2021, 10:52 a.m. UTC

1 40534U 15013A   21183.72187821 -.00000064  00000-0  00000+0 0  9997
2 40534  53.9394 279.1755 0058297  15.1740 345.0362  2.00573724 45941
UTC
Height (km)
Latitude
Longitude
Inclination
Orbital Period
UTC large
Height (km)
Speed (km/s)
/
Latitude / Longitude
Inclination (degrees)
Orbital Period (minutes)
Azimuth
Elevation
Range (km)
Doppler Factor
iOS Compass Heading
iOS Angle